Temp
4 4 4 4 4 4 4 4 4 4 4 3 3 3 3 3 3 3 3 3 3 3 3 3 3 3 3 3 4 3 3 3 3 3 3 3 3 3 3 3 3 3
4 4 3 3 3 4 4 4 4 4 4 4 3 3 3 3 2 3 3 3 3 3 3 3 3 3 3 3 3 3 3 3 3 3 3 3 3 3 3 3 3 3
4 4 3 3 3 4 3 4 4 4 4 4 4 3 3 3 2 3 3 3 3 3 3 3 3 3 3 3 3 3 3 3 3 3 3 3 3 3 3 3 3 3
4 3 3 3 4 4 3 3 4 4 4 4 4 4 3 2 2 3 3 3 3 3 3 3 3 3 3 3 3 3 3 3 3 3 3 3 3 3 3 3 3 3
4 4 4 4 4 3 3 3 3 3 4 3 3 3 3 3 3 3 3 3 3 3 2 3 3 3 3 3 3 3 3 3 3 3 3 3 3 3 3 3 3 3
4 4 4 4 4 3 3 3 3 3 3 3 3 3 3 3 3 3 3 3 2 2 2 3 3 3 3 3 3 3 3 3 3 3 3 3 3 3 3 3 3 3
4 4 4 4 4 4 3 3 3 3 3 3 3 3 3 3 3 3 3 3 2 2 2 3 3 2 3 3 3 3 3 3 3 3 3 3 3 2 2 2 3 3
4 4 4 4 4 4 3 3 3 2 2 3 2 3 3 3 3 3 3 2 2 2 2 2 2 2 2 3 3 3 3 3 3 2 2 2 2 2 2 2 2 2
4 4 4 4 4 4 3 3 2 2 2 3 3 3 3 3 2 2 2 2 2 2 2 2 2 2 2 2 2 3 3 3 2 2 2 2 2 2 2 2 2 2
4 4 3 4 4 4 3 3 3 2 2 2 3 3 3 3 2 2 2 2 2 2 2 2 2 2 2 2 2 2 2 2 2 2 2 2 2 2 2 2 2 2
3 3 3 3 3 3 3 3 3 3 3 3 3 3 2 3 2 2 2 2 2 2 2 3 3 3 2 2 2 2 2 2 2 2 2 2 2 2 2 2 2 2
3 3 3 3 3 3 3 3 3 3 3 3 3 2 2 2 2 1 1 1 1 2 2 3 3 3 3 2 2 3 3 2 2 2 2 2 2 2 2 2 2 2
3 3 3 3 3 3 3 3 3 3 3 2 2 2 2 2 1 1 1 1 2 2 2 3 3 3 3 3 3 3 3 3 2 2 2 2 2 2 2 2 2 2
3 3 3 4 3 3 3 3 3 3 2 2 2 2 2 2 1 1 1 1 2 2 2 3 2 3 3 3 3 3 3 3 3 3 2 2 2 2 2 2 2 2
3 3 3 3 3 3 3 3 3 3 2 2 2 2 1 1 1 1 1 1 2 2 2 2 2 2 3 3 3 3 3 3 3 3 3 2 2 2 2 2 2 2
2 3 3 3 3 3 3 3 3 2 2 2 2 1 1 1 1 1 1 1 2 2 2 2 2 2 2 2 3 3 3 3 3 3 3 2 2 2 2 2 2 2
2 3 3 3 3 3 3 3 2 2 2 1 1 1 1 0 1 1 1 1 2 2 2 2 2 2 2 2 2 2 2 2 2 2 2 2 2 2 2 2 2 2
2 2 3 3 3 3 3 2 2 2 1 1 1 1 1 0 1 1 1 1 1 1 1 2 2 2 2 2 2 2 2 2 2 2 2 2 2 2 2 2 2 2
2 2 2 2 2 2 2 2 2 1 1 1 1 1 1 1 0 0 0 0 1 1 1 1 1 1 2 2 2 2 2 2 2 2 2 2 2 2 2 2 2 2
2 2 2 2 2 2 2 2 2 1 0 1 0 0 1 1 0 -0 0 0 1 1 1 0 1 1 1 1 1 2 2 2 2 2 2 2 2 2 2 1 1 2
1 1 1 1 1 1 1 1 1 0 0 1 0 0 1 0 -0 -0 0 0 1 1 0 0 0 1 1 1 1 1 1 1 1 1 1 1 1 1 1 1 1 1
1 1 1 1 1 1 1 1 1 0 0 1 0 -0 -0 -1 -1 -0 0 0 0 0 -0 -0 0 1 1 1 1 1 1 1 1 1 0 0 0 0 0 0 0 1
0 1 1 1 1 1 1 1 1 0 0 -0 -1 -1 -1 -1 -1 -0 -0 -0 -0 -0 -0 -0 0 0 0 1 1 1 1 1 0 0 0 -0 -0 -0 -0 -0 -0 0
0 0 1 1 1 1 1 0 0 -0 -0 -1 -1 -2 -2 -2 -1 -1 -1 -1 -1 -1 -1 -0 -0 -0 0 0 0 1 0 0 -0 -0 -0 -0 -1 -1 -1 -1 -1 -0
0 0 0 0 0 0 0 0 0 -0 -1 -1 -1 -2 -2 -2 -1 -1 -1 -1 -1 -1 -1 -0 -1 -0 -0 -0 0 0 -0 -0 -0 -0 -1 -1 -1 -1 -1 -1 -1 -1
-0 -0 -0 -0 -0 -0 -0 -0 -0 -1 -1 -1 -1 -1 -1 -1 -1 -1 -1 -1 -1 -1 -1 -1 -1 -1 -1 -1 -1 -1 -1 -0 -1 -1 -1 -1 -1 -1 -1 -1 -1 -1
Height
3111 3111 3110 3111 3112 3113 3114 3116 3116 3117 3117 3118 3119 3119 3118 3118 3118 3120 3122 3123 3123 3124 3126 3129 3131 3133 3134 3135 3136 3137 3139 3140 3141 3142 3144 3145 3146 3147 3148 3149 3150 3151
3110 3109 3107 3106 3106 3109 3111 3113 3114 3115 3116 3116 3117 3118 3118 3118 3117 3118 3120 3120 3120 3122 3124 3126 3129 3131 3132 3134 3135 3136 3137 3138 3140 3141 3142 3143 3144 3146 3147 3147 3148 3149
3107 3107 3105 3102 3102 3107 3110 3111 3111 3113 3114 3114 3115 3116 3117 3118 3117 3117 3119 3119 3120 3121 3122 3124 3126 3129 3131 3132 3134 3135 3136 3137 3139 3140 3141 3142 3143 3144 3145 3146 3147 3148
3104 3105 3105 3102 3102 3105 3108 3108 3108 3110 3111 3112 3113 3114 3115 3116 3115 3115 3117 3119 3120 3122 3122 3122 3124 3127 3129 3131 3133 3134 3135 3136 3137 3139 3140 3141 3142 3143 3144 3144 3145 3146
3104 3106 3106 3104 3102 3102 3103 3104 3105 3108 3109 3111 3112 3112 3113 3114 3114 3115 3116 3118 3120 3122 3123 3122 3122 3125 3128 3130 3131 3133 3134 3135 3136 3137 3139 3140 3141 3142 3143 3143 3144 3145
3103 3104 3104 3103 3100 3099 3100 3102 3104 3106 3107 3108 3109 3110 3112 3112 3112 3113 3115 3117 3119 3121 3123 3122 3121 3124 3126 3128 3130 3131 3132 3134 3135 3136 3137 3139 3140 3140 3141 3142 3143 3144
3099 3099 3100 3101 3100 3099 3099 3101 3102 3104 3104 3105 3106 3108 3110 3111 3111 3111 3112 3114 3116 3119 3121 3121 3121 3123 3125 3126 3128 3129 3130 3132 3133 3135 3136 3137 3138 3139 3140 3141 3142 3142
3096 3097 3098 3098 3098 3098 3098 3099 3100 3101 3100 3100 3103 3106 3108 3108 3108 3109 3109 3110 3114 3117 3119 3119 3120 3122 3123 3124 3126 3127 3129 3130 3131 3133 3134 3135 3136 3137 3138 3139 3140 3141
3094 3094 3094 3094 3095 3095 3096 3096 3097 3097 3096 3098 3101 3104 3105 3106 3106 3107 3107 3109 3112 3115 3117 3118 3119 3120 3121 3122 3124 3126 3127 3128 3129 3131 3132 3133 3135 3136 3137 3138 3139 3139
3091 3091 3090 3091 3092 3093 3093 3093 3093 3093 3094 3097 3099 3101 3102 3103 3104 3106 3106 3108 3111 3112 3114 3116 3117 3119 3120 3121 3122 3124 3125 3126 3127 3129 3130 3131 3133 3134 3135 3136 3137 3138
3088 3088 3087 3087 3088 3089 3090 3089 3089 3090 3093 3095 3096 3097 3099 3101 3102 3104 3105 3108 3110 3110 3112 3114 3115 3117 3118 3119 3121 3122 3123 3125 3126 3127 3128 3129 3131 3132 3133 3135 3136 3136
3084 3083 3083 3082 3083 3085 3086 3085 3085 3087 3090 3092 3093 3095 3096 3097 3100 3102 3104 3106 3108 3109 3111 3113 3113 3115 3117 3118 3119 3121 3122 3123 3124 3125 3126 3128 3129 3131 3132 3133 3134 3135
3081 3079 3079 3079 3079 3080 3081 3081 3081 3084 3087 3088 3090 3092 3093 3094 3097 3100 3102 3104 3106 3108 3110 3111 3112 3114 3115 3116 3118 3119 3121 3122 3123 3124 3125 3126 3128 3129 3130 3131 3132 3133
3077 3076 3076 3076 3076 3076 3076 3077 3078 3080 3083 3084 3086 3088 3090 3092 3095 3097 3099 3102 3104 3106 3108 3109 3110 3112 3114 3115 3116 3118 3119 3120 3121 3123 3124 3125 3126 3127 3128 3129 3130 3131
3074 3074 3074 3073 3073 3072 3072 3073 3075 3077 3080 3081 3083 3085 3087 3090 3092 3095 3097 3100 3102 3104 3106 3107 3109 3111 3112 3114 3115 3116 3118 3119 3120 3121 3122 3124 3125 3125 3126 3127 3128 3129
3071 3072 3072 3070 3070 3069 3069 3069 3071 3073 3076 3078 3080 3082 3085 3087 3090 3092 3095 3098 3101 3103 3104 3106 3108 3110 3111 3113 3114 3115 3116 3118 3119 3120 3121 3122 3123 3124 3125 3126 3126 3127
3069 3069 3069 3068 3067 3067 3066 3067 3068 3070 3073 3075 3077 3079 3082 3086 3088 3091 3094 3096 3099 3101 3103 3105 3107 3108 3110 3111 3113 3114 3115 3117 3118 3119 3120 3121 3122 3122 3123 3124 3125 3125
3066 3066 3066 3065 3064 3063 3063 3064 3065 3068 3070 3072 3074 3076 3080 3083 3087 3090 3092 3095 3098 3100 3102 3104 3105 3107 3109 3110 3112 3113 3115 3116 3117 3118 3119 3120 3121 3121 3122 3123 3124 3124
3063 3063 3062 3062 3061 3060 3061 3062 3063 3066 3068 3070 3072 3075 3079 3082 3085 3089 3091 3094 3096 3099 3100 3102 3104 3106 3107 3109 3110 3112 3113 3115 3116 3116 3117 3118 3120 3121 3121 3122 3122 3123
3060 3060 3060 3059 3059 3058 3058 3060 3063 3065 3066 3068 3071 3075 3078 3081 3083 3087 3090 3092 3095 3097 3099 3101 3102 3104 3106 3107 3109 3110 3112 3113 3114 3115 3116 3117 3118 3119 3120 3120 3120 3121
3058 3058 3058 3058 3058 3058 3058 3059 3062 3064 3065 3067 3071 3074 3077 3079 3082 3086 3089 3091 3094 3096 3097 3099 3101 3103 3104 3106 3107 3108 3110 3111 3112 3113 3114 3114 3116 3117 3118 3118 3119 3119
3057 3057 3057 3057 3057 3058 3058 3059 3061 3062 3064 3067 3070 3072 3075 3078 3081 3086 3088 3091 3093 3094 3096 3098 3100 3101 3103 3104 3106 3107 3108 3109 3110 3111 3111 3112 3113 3114 3116 3117 3117 3117
3057 3056 3056 3056 3056 3056 3058 3059 3061 3062 3064 3066 3068 3070 3074 3077 3081 3084 3087 3089 3091 3093 3094 3096 3098 3099 3101 3102 3104 3105 3106 3107 3108 3109 3110 3110 3111 3112 3113 3115 3115 3116
3057 3057 3057 3056 3055 3056 3057 3059 3061 3062 3064 3066 3068 3071 3074 3077 3079 3082 3085 3087 3089 3091 3093 3094 3096 3097 3098 3100 3101 3102 3104 3105 3106 3107 3108 3109 3109 3110 3111 3112 3113 3114
3059 3059 3059 3057 3056 3056 3058 3060 3062 3064 3065 3067 3070 3071 3073 3075 3078 3080 3083 3086 3088 3089 3091 3092 3094 3095 3096 3097 3098 3100 3101 3102 3103 3104 3106 3107 3108 3108 3109 3110 3111 3112
3061 3062 3062 3061 3060 3060 3060 3062 3063 3065 3066 3068 3069 3070 3072 3074 3076 3079 3082 3084 3086 3088 3089 3091 3092 3093 3094 3095 3096 3097 3098 3099 3100 3101 3103 3104 3105 3106 3107 3108 3109 3110
Wind_Speed
29 28 27 26 25 24 22 18 18 20 21 22 24 25 25 25 25 25 26 27 29 27 23 21 21 21 21 21 20 19 20 19 19 19 18 18 17 17 16 16 16 16
30 28 26 28 29 26 22 17 18 19 19 20 22 23 26 27 26 25 26 29 29 25 21 21 20 20 21 21 20 20 20 19 19 18 18 17 17 16 16 15 15 16
31 28 28 31 30 24 19 17 18 19 19 19 21 22 24 26 25 25 26 28 27 23 22 23 21 21 21 21 20 20 19 18 18 18 17 17 17 16 16 15 15 16
31 29 29 31 28 22 19 19 19 20 20 20 22 23 23 24 24 24 26 27 26 25 25 25 22 20 20 20 21 20 19 18 18 18 18 17 17 16 16 16 15 16
28 26 26 27 28 26 23 20 20 20 21 20 21 23 24 23 22 24 26 26 25 26 26 24 21 20 20 20 21 21 20 19 19 18 18 17 17 16 16 16 16 16
23 24 25 26 29 29 26 22 21 22 21 20 22 24 24 23 23 24 26 25 23 25 25 22 19 20 21 21 21 21 20 20 19 19 18 18 17 17 16 16 16 16
21 25 26 27 28 29 28 26 24 24 23 23 24 24 23 24 24 26 27 25 23 23 23 21 19 20 21 20 20 20 20 20 20 20 19 19 18 17 16 16 16 17
23 24 24 26 28 30 31 29 27 27 27 26 25 24 23 24 27 30 28 24 23 24 23 21 20 20 20 20 20 20 20 21 21 20 20 19 18 17 17 16 16 17
23 25 26 27 28 30 32 31 29 30 30 27 25 24 23 24 28 31 28 25 25 25 23 21 20 20 20 20 20 20 21 21 21 20 19 19 18 19 18 17 17 18
23 26 28 29 29 31 32 32 32 32 30 27 26 26 26 25 28 29 27 27 28 25 21 21 21 20 19 19 19 19 20 20 19 19 18 18 18 19 18 18 18 18
24 25 27 28 28 29 30 33 35 34 31 29 28 27 28 28 28 28 28 28 26 22 21 21 20 19 19 18 18 18 18 18 18 18 18 17 17 17 18 18 17 17
27 28 28 29 28 28 29 33 36 36 33 31 29 28 30 30 28 27 29 27 23 21 22 21 19 19 19 18 18 18 17 17 18 18 17 17 16 16 17 17 16 16
29 29 30 30 29 30 31 33 36 37 35 33 31 29 30 29 26 27 28 26 22 22 21 20 19 19 18 18 17 17 17 16 17 17 17 16 16 16 16 16 16 17
28 29 29 29 28 30 32 33 34 34 34 34 33 32 30 26 26 29 28 25 22 22 22 21 20 18 17 16 15 15 15 15 16 16 15 15 15 15 16 17 18 18
28 28 28 29 28 28 30 31 32 31 31 32 33 31 29 28 30 31 28 25 24 23 23 22 20 19 17 16 15 15 14 14 14 13 13 13 14 15 15 16 18 19
27 27 28 28 28 28 29 29 30 29 28 30 31 29 28 30 32 31 27 26 26 24 23 22 20 20 18 17 16 15 14 14 13 12 12 12 12 13 14 15 16 17
24 24 25 26 27 27 27 28 29 28 28 31 31 30 31 33 32 30 29 28 26 24 23 23 22 20 19 18 17 15 14 13 13 12 12 12 12 13 13 14 15 16
20 21 22 24 25 25 24 25 27 29 29 29 29 30 34 36 33 30 30 29 26 26 26 24 22 20 18 17 16 14 13 12 12 12 12 12 12 12 12 13 15 16
17 19 20 22 23 22 21 22 25 27 28 27 29 33 36 37 36 32 31 31 29 28 26 24 22 19 18 17 15 13 13 12 11 12 12 12 12 11 12 13 14 16
16 18 18 20 19 17 20 24 23 24 27 27 30 35 36 35 36 35 34 33 32 29 25 22 20 19 17 16 14 13 12 12 12 12 13 13 13 13 14 14 15 16
14 15 14 16 16 15 19 24 22 22 26 27 30 36 36 34 36 36 35 33 31 28 24 21 19 19 18 16 14 13 13 13 13 14 15 16 16 17 16 16 16 17
10 11 13 15 15 15 22 26 22 21 24 28 35 37 34 32 34 36 34 31 28 25 23 22 21 20 18 17 16 15 15 15 16 16 17 18 19 19 18 17 17 17
10 11 11 14 13 14 25 28 23 24 30 36 37 34 30 29 33 34 32 27 25 24 23 23 22 20 19 18 17 17 17 18 18 19 20 20 21 21 20 19 18 18
11 12 13 15 13 12 25 28 25 29 33 34 32 29 28 30 33 34 31 26 24 24 24 23 22 21 20 19 19 20 20 20 20 21 22 23 23 24 23 21 19 18
7 10 12 14 12 15 21 20 24 30 30 29 30 31 33 35 35 35 31 27 25 24 23 23 22 21 21 21 21 22 22 22 23 23 24 24 24 24 22 19 18 18
4 6 7 9 11 16 16 14 19 25 28 29 31 33 35 37 36 35 32 28 25 22 21 21 21 21 22 22 23 23 23 24 24 22 22 22 21 20 18 16 16 17
Wind_Direction
234 229 227 230 229 221 220 238 254 252 248 246 244 240 231 224 222 223 223 221 221 217 213 217 218 216 217 218 220 223 225 223 220 220 220 218 220 220 221 223 224 227
239 236 232 235 231 219 218 243 259 252 248 246 243 240 233 227 222 218 219 223 224 219 213 214 214 212 215 216 217 220 221 221 220 221 220 219 221 221 221 222 223 225
239 239 242 245 238 223 223 246 254 248 247 244 239 238 233 229 222 215 218 226 228 223 214 210 208 210 212 212 213 215 215 217 219 220 220 221 222 221 220 222 223 224
240 242 250 253 246 233 232 246 251 246 247 246 240 236 230 227 221 215 217 225 229 227 218 207 202 205 208 207 210 212 212 216 218 218 219 222 224 224 223 224 224 225
245 248 256 257 248 240 238 245 253 251 250 251 244 237 232 229 223 218 218 221 227 229 221 207 198 201 205 207 211 213 214 218 221 222 223 224 225 226 226 228 229 229
248 252 255 254 249 246 246 250 256 257 257 255 245 238 235 232 224 220 220 221 224 227 220 208 200 202 207 209 213 217 219 223 224 226 228 227 227 228 228 229 231 233
241 247 252 254 253 251 250 250 253 255 258 256 245 237 234 232 225 220 220 219 219 219 214 209 207 210 213 215 218 222 225 227 226 227 229 229 229 229 230 229 231 233
239 247 253 255 254 249 244 245 248 249 253 253 246 239 235 231 227 223 218 211 209 212 213 211 212 215 219 221 222 225 228 229 227 226 228 229 229 230 230 229 230 232
243 247 250 250 250 245 240 241 245 248 252 254 249 243 239 236 232 226 216 205 203 207 210 212 213 215 217 220 221 223 226 227 226 226 227 228 228 230 231 230 231 233
250 248 249 250 250 246 241 241 245 247 252 257 252 243 241 239 231 222 214 208 205 204 206 211 213 214 215 217 219 221 222 223 223 224 226 227 228 230 232 233 234 235
263 258 255 253 251 247 243 243 246 247 249 255 250 242 241 237 225 217 214 208 204 204 207 211 212 213 215 217 218 218 218 218 218 220 223 226 228 230 231 233 234 235
269 266 262 259 256 252 248 246 247 247 248 250 245 237 236 231 217 212 209 202 199 204 208 209 211 214 216 216 218 219 217 215 214 216 221 223 226 227 229 231 233 234
268 265 262 261 261 259 255 252 249 247 245 244 240 234 229 221 209 205 201 193 195 204 206 206 209 213 215 217 219 220 218 216 215 218 221 222 225 227 229 230 232 233
264 263 261 261 261 261 258 255 253 250 243 237 234 229 223 215 207 201 192 188 195 199 200 203 204 207 211 214 217 216 214 214 217 220 223 224 227 230 231 232 232 233
261 261 262 263 262 259 257 254 253 251 240 232 230 224 214 209 204 195 186 187 194 194 195 198 198 201 205 208 209 207 205 207 211 217 221 222 227 230 232 234 235 236
260 260 261 262 260 258 257 254 250 244 232 227 226 216 203 200 196 188 184 189 192 191 193 195 195 198 201 202 203 201 200 203 207 212 218 222 228 231 233 236 239 240
259 262 261 261 260 257 256 252 244 235 228 227 223 209 197 194 189 184 184 187 188 189 190 191 193 195 196 197 197 196 196 201 204 208 215 220 227 233 235 239 242 245
259 263 263 261 259 258 256 247 234 227 226 224 216 203 193 187 184 184 185 183 184 186 186 187 188 190 194 196 196 196 197 202 208 211 216 220 226 233 239 243 245 246
256 259 261 259 258 260 252 234 224 224 224 213 201 194 189 185 183 184 182 181 183 185 184 186 189 192 198 201 202 206 208 213 221 226 228 231 232 238 245 250 251 248
258 258 259 259 258 259 246 225 213 218 219 208 195 189 186 186 186 184 182 185 187 187 186 189 195 201 205 208 212 218 222 228 236 241 245 245 245 248 251 253 253 251
264 258 262 262 256 252 237 219 209 216 219 208 195 188 186 187 187 185 189 192 190 188 188 193 203 211 213 216 221 228 236 242 247 251 253 255 256 257 258 257 253 250
275 274 270 259 252 239 224 216 213 217 213 199 189 184 184 187 188 188 194 197 192 189 191 199 211 217 220 225 229 235 243 247 251 254 255 258 259 259 261 260 253 247
297 301 273 253 262 237 211 209 210 203 194 188 182 177 177 185 190 193 196 195 193 194 198 206 214 221 227 232 236 241 244 246 249 251 253 256 257 258 261 259 249 242
290 291 261 251 267 224 190 189 195 195 190 183 177 176 181 188 193 197 198 196 197 201 205 211 217 224 229 235 241 244 246 247 248 249 250 252 255 258 260 254 240 232
281 274 251 233 222 196 187 191 197 196 190 184 183 189 194 197 200 202 200 200 203 206 210 214 219 224 230 237 243 246 249 254 255 253 250 249 251 252 250 243 233 225
304 281 254 227 204 197 205 219 215 204 197 194 197 202 204 204 205 204 203 205 209 214 219 220 222 227 232 237 241 247 253 255 253 250 245 242 239 235 231 229 228 223